This is the latest recevied weather packets stored in our database for station/object DO1BDB-12. If no packets are shown the sender has not sent any weather packets the latest 10 day(s).
| Time | Temp. | Humidity | Pressure | Rain* | Wind** | Luminosity | Snow |
|---|---|---|---|---|---|---|---|
| 1777379722 | 18.33° C | 28% | 102.7 hPa | - | - | - | - |
| 1777379655 | 18.33° C | 28% | 102.7 hPa | - | - | - | - |
| 1777379589 | 18.89° C | 27% | 102.7 hPa | - | - | - | - |
| 1777379524 | 18.89° C | 26% | 102.7 hPa | - | - | - | - |
| 1777379458 | 19.44° C | 27% | 102.7 hPa | - | - | - | - |
| 1777379392 | 20° C | 27% | 102.7 hPa | - | - | - | - |
| 1777379326 | 19.44° C | 27% | 102.7 hPa | - | - | - | - |
| 1777379260 | 19.44° C | 27% | 102.7 hPa | - | - | - | - |
| 1777379195 | 18.89° C | 26% | 102.7 hPa | - | - | - | - |
| 1777379129 | 19.44° C | 27% | 102.7 hPa | - | - | - | - |
| 1777379063 | 19.44° C | 27% | 102.7 hPa | - | - | - | - |
| 1777378997 | 19.44° C | 26% | 102.7 hPa | - | - | - | - |
| 1777378931 | 19.44° C | 26% | 102.7 hPa | - | - | - | - |
| 1777378865 | 18.89° C | 27% | 102.7 hPa | - | - | - | - |
| 1777378799 | 18.89° C | 27% | 102.7 hPa | - | - | - | - |
| 1777378733 | 18.89° C | 26% | 102.7 hPa | - | - | - | - |
| 1777378668 | 20° C | 28% | 102.7 hPa | - | - | - | - |
| 1777378602 | 19.44° C | 29% | 102.7 hPa | - | - | - | - |
| 1777378536 | 19.44° C | 27% | 102.7 hPa | - | - | - | - |
| 1777378470 | 18.89° C | 27% | 102.7 hPa | - | - | - | - |
| 1777378404 | 20° C | 26% | 102.7 hPa | - | - | - | - |
| 1777378338 | 19.44° C | 27% | 102.7 hPa | - | - | - | - |
| 1777378273 | 18.33° C | 27% | 102.7 hPa | - | - | - | - |
| 1777378207 | 17.22° C | 31% | 102.7 hPa | - | - | - | - |
| 1777378141 | 18.89° C | 29% | 102.7 hPa | - | - | - | - |
* Rain since midnight (hover to see other rain measurements)
** Current wind speed in m/s (hover to see current wind gust speed)